#timestamp,LO_Frequency,Hit,StdDev 
1457960415.3,286046999.8,N
1457960435.1,286047000.1,N
1457960455.9,286046999.5,N
1457960475.7,286046998.5,N
1457960495.5,286047002.3,N
1457960515.4,286046998.4,N
1457960535.2,286046996.8,N
1457960555.0,286046995.2,N
1457960555.9,286046995.2,N
1457960575.8,286046998.9,N
1457960595.6,286046999.6,N
1457960615.4,286046997.4,N
1457960635.3,286046995.6,N
1457960655.1,286046995.9,N
1457960656.0,286046995.9,N
1457960675.8,286046992.9,N
1457960695.7,286046991.4,Y
1457960715.5,286046995.6,P
1457960735.3,286046996.1,P
1457960755.2,286046993.7,P
1457960775.9,286046992.1,Y
1457960795.7,286046994.5,P
1457960815.6,286046994.3,P
1457960835.4,286046995.0,P
1457960855.2,286046993.7,Y
1457960875.1,286046999.5,P
1457960876.0,286046999.5,N
1457960895.8,286046997.3,N
1457960915.6,286046993.5,Y
1457960935.5,286046997.0,P
1457960955.3,286046997.8,P
1457960975.1,286046993.3,P
1457960995.9,286046994.3,Y
1457961015.7,286046997.7,P
1457961035.5,286046994.8,P
1457961055.4,286046992.9,P
1457961075.2,286046990.8,Y
1457961095.0,286046996.4,P
1457961095.9,286046996.4,P
1457961115.8,286046990.8,P
1457961135.6,286046990.6,Y
1457961155.4,286046998.7,P
1457961175.3,286046999.6,N
1457961195.1,286046999.0,N
1457961215.8,286046996.6,N
1457961235.7,286047000.6,N
1457961255.5,286046999.7,N
1457961275.3,286047000.1,N
1457961295.2,286047002.7,N
1457961315.9,286047003.7,N
1457961335.7,286047002.7,N
1457961355.6,286047004.2,N
1457961375.4,286047005.1,N
1457961395.2,286047004.5,N
1457961415.0,286047006.8,N
1457961415.9,286047006.8,N
1457961435.8,286047005.6,N
1457961455.6,286047008.8,N
1457961475.4,286047010.3,N
1457961495.3,286047008.3,N
1457961515.1,286047007.9,N
1457961516.0,286047007.9,N
1457961535.8,286047011.8,N
1457961555.7,286047010.0,N
1457961575.5,286047014.0,Y
1457961595.3,286047012.0,P
1457961615.2,286047011.0,N
1457961635.9,286047012.4,P
1457961655.7,286047009.3,N
1457961675.6,286047011.1,Y
1457961695.4,286047000.3,P
1457961715.2,286047003.0,N
1457961735.1,286046999.7,N
1457961736.0,286046999.7,N
1457961755.8,286046999.0,N
1457961775.6,286046995.0,N
1457961795.5,286046994.4,N
1457961815.3,286046994.2,N
1457961835.1,286046996.1,N
1457961855.9,286046994.1,N
1457961875.7,286046991.8,N
1457961895.5,286046995.6,N
1457961915.3,286046996.2,N
1457961935.2,286046992.3,N
1457961955.9,286046991.8,N
1457961975.7,286046991.8,N
1457961995.6,286046996.2,N
1457962015.4,286046998.9,N
1457962035.2,286046997.1,N
1457962055.1,286046999.3,N
1457962056.0,286046999.3,N
1457962075.8,286046995.7,N
1457962095.6,286046990.1,N
1457962115.5,286046992.4,N
1457962135.3,286046993.7,N
1457962155.1,286046997.8,N
1457962175.8,286047000.8,N
1457962195.7,286046999.9,N
1457962215.5,286046998.7,N
1457962235.3,286047000.0,N
1457962255.2,286046998.6,N
1457962275.9,286046995.7,N
1457962295.7,286046995.1,N
1457962315.6,286046998.5,N
1457962335.4,286047000.6,N
1457962355.2,286047000.9,N
1457962375.1,286047002.5,N
1457962376.0,286047002.5,N
1457962395.8,286046999.7,N
1457962415.6,286046998.4,N
1457962435.5,286047001.0,N
1457962455.3,286046998.2,N
1457962475.1,286046997.1,N
1457962495.9,286046998.8,N
1457962515.7,286047002.2,N
1457962535.5,286047001.2,N
1457962555.3,286047001.5,N
1457962575.2,286047004.4,N
1457962595.0,286047003.5,N
1457962595.9,286047003.5,N
1457962615.7,286047005.4,N
1457962635.6,286047004.4,N
1457962655.4,286047003.9,N
1457962675.2,286047003.9,N
1457962695.1,286047002.5,N
1457962696.0,286047002.5,N
1457962715.8,286047000.3,N
1457962735.6,286046997.1,N
1457962755.5,286046996.8,N
1457962775.3,286046999.1,N
1457962795.1,286046997.9,N
1457962815.9,286046993.4,N
1457962835.7,286046995.8,N
1457962855.5,286046995.6,N
1457962875.4,286046994.9,N
1457962895.2,286046996.3,N
1457962915.0,286046997.9,N
1457962915.9,286046997.9,N
1457962935.7,286046995.6,N
1457962955.6,286046995.2,N
1457962975.4,286046993.3,N
1457962995.2,286046990.6,N
1457963015.1,286046992.2,N
1457963016.0,286046992.2,N
1457963035.8,286046989.4,N
1457963055.6,286046987.5,N
1457963075.5,286046985.6,N
1457963095.3,286046989.2,N
1457963115.1,286046988.9,N
1457963135.9,286046991.4,N
1457963155.7,286046991.1,N
1457963175.5,286046994.0,N
1457963195.4,286046995.1,N
1457963215.2,286046997.8,N
1457963235.0,286046997.6,N
1457963235.9,286046997.6,N
1457963255.8,286047000.7,N
1457963275.6,286046998.7,N
1457963295.4,286046996.8,N
1457963315.2,286046997.8,N
1457963335.1,286046996.1,N
1457963336.0,286046996.1,N
1457963355.8,286046995.6,N
1457963375.6,286046999.6,N
1457963395.5,286046996.6,N
1457963415.3,286046998.7,N
1457963435.1,286046998.8,N
1457963455.9,286046999.8,N
1457963475.7,286047004.3,N
1457963495.5,286047002.6,N
1457963515.4,286047003.8,N
1457963535.2,286047005.3,N
1457963555.0,286047005.3,N
1457963555.9,286047005.3,N
1457963575.8,286047008.8,N
1457963595.6,286047010.0,N
1457963615.4,286047010.6,N
1457963635.3,286047009.8,N
1457963655.1,286047012.1,N
1457963656.0,286047012.1,N
1457963675.8,286047010.6,N
1457963695.6,286047014.0,N
1457963715.5,286047013.2,N
1457963735.3,286047014.8,N
1457963755.1,286047013.0,N
1457963775.9,286047014.2,N
1457963795.7,286047015.3,N
1457963815.5,286047013.4,N
1457963835.4,286047011.0,N
1457963855.2,286047010.1,N
1457963875.0,286047008.7,N
1457963875.9,286047008.7,N
1457963895.8,286047007.0,N
1457963915.6,286047006.9,N
1457963935.4,286047008.2,N
1457963955.3,286047008.5,N
1457963975.1,286047009.0,N
1457963976.0,286047009.0,N
1457963995.8,286047009.2,N
